Location: Namasale
(1.5000°N, 32.6167°E)
Time: 23:09:52
(UTC+00:00)

Vanguard 3 - Pass Details

Date: 03 December 2021
Orbit: 508 x 3260 km, 33.3° (Epoch: 27 January)

Event Time Altitude Azimuth Distance (km) Brightness Sun altitude
Rises 19:22:09 0° 205° (SSW) 4,349 11.4 -50.7°
Reaches altitude 10° 19:25:27 10° 191° (S) 3,759 10.8 -51.4°
Enters shadow 19:29:22 21° 168° (SSE) 3,414 10.3 -52.2°
